PRIVATE WETTERSTATION BILLIGHEIM-ALLFELD                       ZURCK
Wetterdaten: Donnerstag, 23.10.2014
Datum Zeit Temp. A. Temp. A. min Temp. A. max Feuchte A. Luftdruck Regen Wind Richtung Richtung Sonnenschein ET Solar Taupunkt Windchill Windben Empfang
23.10.2014 00:00 7,6 C 7,6 C 7,6 C 88 % 1019,6 hPa 0,0 l/m 17,7 km/h (3 Bft) W-NW 292 0 min 0,025 mm 0 W/m 5,7 C 1,1 C 33,8 km/h (5 Bft) 100 %
23.10.2014 00:10 7,7 C 7,6 C 7,7 C 87 % 1019,6 hPa 0,0 l/m 17,7 km/h (3 Bft) W-NW 292 0 min 0,000 mm 0 W/m 5,7 C 1,2 C 33,8 km/h (5 Bft) 99 %
23.10.2014 00:20 7,7 C 7,7 C 7,7 C 87 % 1019,7 hPa 0,0 l/m 16,1 km/h (3 Bft) NW 315 0 min 0,000 mm 0 W/m 5,7 C 1,9 C 33,8 km/h (5 Bft) 100 %
23.10.2014 00:30 7,7 C 7,7 C 7,8 C 87 % 1019,7 hPa 0,0 l/m 17,7 km/h (3 Bft) W-NW 292 0 min 0,000 mm 0 W/m 5,7 C 1,2 C 33,8 km/h (5 Bft) 100 %
23.10.2014 00:40 7,8 C 7,7 C 7,8 C 87 % 1019,8 hPa 0,0 l/m 12,9 km/h (3 Bft) NW 315 0 min 0,000 mm 0 W/m 5,8 C 3,5 C 29,0 km/h (5 Bft) 100 %
23.10.2014 00:50 7,8 C 7,7 C 7,8 C 87 % 1020,0 hPa 0,0 l/m 16,1 km/h (3 Bft) W-NW 292 0 min 0,000 mm 0 W/m 5,8 C 2,0 C 32,2 km/h (5 Bft) 100 %
23.10.2014 01:00 7,7 C 7,7 C 7,8 C 86 % 1019,9 hPa 0,0 l/m 14,5 km/h (3 Bft) W-NW 292 0 min 0,025 mm 0 W/m 5,5 C 2,6 C 27,4 km/h (4 Bft) 100 %
23.10.2014 01:10 7,7 C 7,7 C 7,7 C 86 % 1019,8 hPa 0,0 l/m 16,1 km/h (3 Bft) NW 315 0 min 0,000 mm 0 W/m 5,5 C 1,9 C 29,0 km/h (5 Bft) 100 %
23.10.2014 01:20 7,7 C 7,7 C 7,7 C 86 % 1019,8 hPa 0,0 l/m 11,3 km/h (2 Bft) W-NW 292 0 min 0,000 mm 0 W/m 5,5 C 4,3 C 25,7 km/h (4 Bft) 100 %
23.10.2014 01:30 7,7 C 7,7 C 7,7 C 87 % 1019,8 hPa 0,0 l/m 11,3 km/h (2 Bft) NW 315 0 min 0,000 mm 0 W/m 5,7 C 4,3 C 24,1 km/h (4 Bft) 100 %
23.10.2014 01:40 7,7 C 7,7 C 7,7 C 87 % 1019,7 hPa 0,0 l/m 17,7 km/h (3 Bft) W-NW 292 0 min 0,000 mm 0 W/m 5,7 C 1,2 C 30,6 km/h (5 Bft) 100 %
23.10.2014 01:50 7,7 C 7,7 C 7,7 C 86 % 1019,7 hPa 0,0 l/m 17,7 km/h (3 Bft) NW 315 0 min 0,000 mm 0 W/m 5,5 C 1,2 C 35,4 km/h (5 Bft) 100 %
23.10.2014 02:00 7,7 C 7,7 C 7,7 C 86 % 1019,9 hPa 0,0 l/m 16,1 km/h (3 Bft) W-NW 292 0 min 0,025 mm 0 W/m 5,5 C 1,9 C 37,0 km/h (5 Bft) 100 %
23.10.2014 02:10 7,7 C 7,7 C 7,7 C 86 % 1020,0 hPa 0,0 l/m 17,7 km/h (3 Bft) NW 315 0 min 0,000 mm 0 W/m 5,5 C 1,2 C 35,4 km/h (5 Bft) 100 %
23.10.2014 02:20 7,7 C 7,7 C 7,8 C 86 % 1020,1 hPa 0,0 l/m 19,3 km/h (3 Bft) W-NW 292 0 min 0,000 mm 0 W/m 5,5 C 0,6 C 38,6 km/h (5 Bft) 100 %
23.10.2014 02:30 7,7 C 7,7 C 7,8 C 86 % 1020,4 hPa 0,0 l/m 16,1 km/h (3 Bft) NW 315 0 min 0,000 mm 0 W/m 5,5 C 1,9 C 35,4 km/h (5 Bft) 100 %
23.10.2014 02:40 7,7 C 7,7 C 7,8 C 86 % 1020,5 hPa 0,0 l/m 17,7 km/h (3 Bft) NW 315 0 min 0,000 mm 0 W/m 5,5 C 1,2 C 35,4 km/h (5 Bft) 100 %
23.10.2014 02:50 7,7 C 7,7 C 7,7 C 86 % 1020,5 hPa 0,0 l/m 16,1 km/h (3 Bft) NW 315 0 min 0,000 mm 0 W/m 5,5 C 1,9 C 30,6 km/h (5 Bft) 100 %
23.10.2014 03:00 7,7 C 7,7 C 7,7 C 86 % 1020,5 hPa 0,0 l/m 17,7 km/h (3 Bft) NW 315 0 min 0,025 mm 0 W/m 5,5 C 1,2 C 33,8 km/h (5 Bft) 100 %
23.10.2014 03:10 7,7 C 7,7 C 7,7 C 86 % 1020,6 hPa 0,0 l/m 19,3 km/h (3 Bft) NW 315 0 min 0,000 mm 0 W/m 5,5 C 0,6 C 35,4 km/h (5 Bft) 100 %
23.10.2014 03:20 7,7 C 7,7 C 7,7 C 86 % 1020,6 hPa 0,0 l/m 17,7 km/h (3 Bft) W-NW 292 0 min 0,000 mm 0 W/m 5,5 C 1,2 C 33,8 km/h (5 Bft) 100 %
23.10.2014 03:30 7,7 C 7,7 C 7,7 C 86 % 1020,8 hPa 0,0 l/m 17,7 km/h (3 Bft) NW 315 0 min 0,000 mm 0 W/m 5,5 C 1,2 C 32,2 km/h (5 Bft) 100 %
23.10.2014 03:40 7,7 C 7,7 C 7,7 C 86 % 1020,6 hPa 0,0 l/m 17,7 km/h (3 Bft) NW 315 0 min 0,000 mm 0 W/m 5,5 C 1,2 C 33,8 km/h (5 Bft) 100 %
23.10.2014 03:50 7,7 C 7,7 C 7,7 C 85 % 1020,7 hPa 0,0 l/m 17,7 km/h (3 Bft) NW 315 0 min 0,000 mm 0 W/m 5,3 C 1,2 C 32,2 km/h (5 Bft) 100 %
23.10.2014 04:00 7,7 C 7,7 C 7,7 C 86 % 1020,7 hPa 0,0 l/m 14,5 km/h (3 Bft) NW 315 0 min 0,025 mm 0 W/m 5,5 C 2,6 C 29,0 km/h (5 Bft) 100 %
23.10.2014 04:10 7,7 C 7,7 C 7,7 C 86 % 1020,7 hPa 0,0 l/m 17,7 km/h (3 Bft) NW 315 0 min 0,000 mm 0 W/m 5,5 C 1,2 C 33,8 km/h (5 Bft) 100 %
23.10.2014 04:20 7,7 C 7,7 C 7,7 C 86 % 1020,8 hPa 0,0 l/m 16,1 km/h (3 Bft) NW 315 0 min 0,000 mm 0 W/m 5,5 C 1,9 C 35,4 km/h (5 Bft) 99 %
23.10.2014 04:30 7,7 C 7,7 C 7,7 C 86 % 1021,0 hPa 0,0 l/m 14,5 km/h (3 Bft) NW 315 0 min 0,000 mm 0 W/m 5,5 C 2,6 C 27,4 km/h (4 Bft) 90 %
23.10.2014 04:40 7,7 C 7,7 C 7,7 C 86 % 1020,9 hPa 0,0 l/m 14,5 km/h (3 Bft) W-NW 292 0 min 0,000 mm 0 W/m 5,5 C 2,6 C 25,7 km/h (4 Bft) 100 %
23.10.2014 04:50 7,7 C 7,7 C 7,7 C 87 % 1020,9 hPa 0,0 l/m 12,9 km/h (3 Bft) NW 315 0 min 0,000 mm 0 W/m 5,7 C 3,4 C 24,1 km/h (4 Bft) 100 %
23.10.2014 05:00 7,6 C 7,6 C 7,7 C 87 % 1021,1 hPa 0,0 l/m 11,3 km/h (2 Bft) NW 315 0 min 0,025 mm 0 W/m 5,6 C 4,1 C 22,5 km/h (4 Bft) 100 %
23.10.2014 05:10 7,6 C 7,6 C 7,6 C 87 % 1021,2 hPa 0,0 l/m 11,3 km/h (2 Bft) NW 315 0 min 0,000 mm 0 W/m 5,6 C 4,1 C 24,1 km/h (4 Bft) 100 %
23.10.2014 05:20 7,6 C 7,6 C 7,6 C 87 % 1021,4 hPa 0,0 l/m 6,4 km/h (2 Bft) W-NW 292 0 min 0,000 mm 0 W/m 5,6 C 7,6 C 16,1 km/h (3 Bft) 100 %
23.10.2014 05:30 7,6 C 7,6 C 7,6 C 87 % 1021,5 hPa 0,0 l/m 4,8 km/h (1 Bft) W-NW 292 0 min 0,000 mm 0 W/m 5,6 C 7,6 C 12,9 km/h (3 Bft) 99 %
23.10.2014 05:40 7,6 C 7,5 C 7,6 C 88 % 1021,6 hPa 0,0 l/m 6,4 km/h (2 Bft) W-NW 292 0 min 0,000 mm 0 W/m 5,7 C 7,6 C 19,3 km/h (3 Bft) 100 %
23.10.2014 05:50 7,6 C 7,5 C 7,6 C 88 % 1021,7 hPa 0,0 l/m 3,2 km/h (1 Bft) NW 315 0 min 0,000 mm 0 W/m 5,7 C 7,6 C 11,3 km/h (2 Bft) 99 %
23.10.2014 06:00 7,6 C 7,6 C 7,6 C 88 % 1021,9 hPa 0,0 l/m 1,6 km/h (1 Bft) W-NW 292 0 min 0,000 mm 0 W/m 5,7 C 7,6 C 8,0 km/h (2 Bft) 100 %
23.10.2014 06:10 7,5 C 7,5 C 7,6 C 88 % 1022,0 hPa 0,0 l/m 1,6 km/h (1 Bft) W-NW 292 0 min 0,000 mm 0 W/m 5,6 C 7,5 C 6,4 km/h (2 Bft) 100 %
23.10.2014 06:20 7,5 C 7,5 C 7,6 C 88 % 1022,1 hPa 0,0 l/m 3,2 km/h (1 Bft) W-NW 292 0 min 0,000 mm 0 W/m 5,6 C 7,5 C 9,7 km/h (2 Bft) 99 %
23.10.2014 06:30 7,5 C 7,5 C 7,5 C 88 % 1022,2 hPa 0,0 l/m 3,2 km/h (1 Bft) W-NW 292 0 min 0,000 mm 0 W/m 5,6 C 7,5 C 9,7 km/h (2 Bft) 100 %
23.10.2014 06:40 7,5 C 7,5 C 7,5 C 88 % 1022,2 hPa 0,0 l/m 3,2 km/h (1 Bft) W-NW 292 0 min 0,000 mm 0 W/m 5,6 C 7,5 C 9,7 km/h (2 Bft) 100 %
23.10.2014 06:50 7,5 C 7,5 C 7,5 C 88 % 1022,2 hPa 0,0 l/m 1,6 km/h (1 Bft) NW 315 0 min 0,000 mm 0 W/m 5,6 C 7,5 C 11,3 km/h (2 Bft) 100 %
23.10.2014 07:00 7,5 C 7,5 C 7,5 C 88 % 1022,3 hPa 0,0 l/m 1,6 km/h (1 Bft) W-NW 292 0 min 0,000 mm 0 W/m 5,6 C 7,5 C 8,0 km/h (2 Bft) 100 %
23.10.2014 07:10 7,5 C 7,4 C 7,5 C 88 % 1022,4 hPa 0,0 l/m 3,2 km/h (1 Bft) W-NW 292 0 min 0,000 mm 0 W/m 5,6 C 7,5 C 9,7 km/h (2 Bft) 91 %
23.10.2014 07:20 7,5 C 7,4 C 7,5 C 88 % 1022,5 hPa 0,0 l/m 3,2 km/h (1 Bft) W 270 0 min 0,000 mm 0 W/m 5,6 C 7,5 C 9,7 km/h (2 Bft) 100 %
23.10.2014 07:30 7,4 C 7,4 C 7,5 C 88 % 1022,6 hPa 0,0 l/m 1,6 km/h (1 Bft) W-NW 292 0 min 0,000 mm 0 W/m 5,5 C 7,4 C 8,0 km/h (2 Bft) 100 %
23.10.2014 07:40 7,4 C 7,4 C 7,5 C 88 % 1022,7 hPa 0,0 l/m 3,2 km/h (1 Bft) W-NW 292 0 min 0,000 mm 0 W/m 5,5 C 7,4 C 8,0 km/h (2 Bft) 100 %
23.10.2014 07:50 7,4 C 7,4 C 7,4 C 88 % 1022,8 hPa 0,0 l/m 1,6 km/h (1 Bft) W-NW 292 0 min 0,000 mm 0 W/m 5,5 C 7,4 C 8,0 km/h (2 Bft) 100 %
23.10.2014 08:00 7,4 C 7,4 C 7,4 C 88 % 1023,0 hPa 0,0 l/m 1,6 km/h (1 Bft) W 270 0 min 0,000 mm 0 W/m 5,5 C 7,4 C 8,0 km/h (2 Bft) 100 %
23.10.2014 08:10 7,4 C 7,4 C 7,4 C 89 % 1023,1 hPa 0,0 l/m 1,6 km/h (1 Bft) W-NW 292 0 min 0,000 mm 0 W/m 5,7 C 7,4 C 8,0 km/h (2 Bft) 100 %
23.10.2014 08:20 7,4 C 7,4 C 7,4 C 89 % 1023,2 hPa 0,0 l/m 1,6 km/h (1 Bft) W-NW 292 0 min 0,000 mm 7 W/m 5,7 C 7,4 C 8,0 km/h (2 Bft) 100 %
23.10.2014 08:30 7,4 C 7,4 C 7,4 C 89 % 1023,3 hPa 0,0 l/m 0,0 km/h (0 Bft) W-NW 292 0 min 0,000 mm 14 W/m 5,7 C 7,4 C 4,8 km/h (1 Bft) 100 %
23.10.2014 08:40 7,4 C 7,4 C 7,4 C 90 % 1023,4 hPa 0,0 l/m 0,0 km/h (0 Bft) W-NW 292 0 min 0,000 mm 23 W/m 5,9 C 7,4 C 8,0 km/h (2 Bft) 100 %
23.10.2014 08:50 7,4 C 7,4 C 7,4 C 90 % 1023,5 hPa 0,0 l/m 1,6 km/h (1 Bft) W-NW 292 0 min 0,000 mm 28 W/m 5,9 C 7,4 C 8,0 km/h (2 Bft) 100 %
23.10.2014 09:00 7,5 C 7,4 C 7,5 C 90 % 1023,6 hPa 0,0 l/m 1,6 km/h (1 Bft) W-NW 292 0 min 0,000 mm 42 W/m 6,0 C 7,5 C 8,0 km/h (2 Bft) 100 %
23.10.2014 09:10 7,6 C 7,4 C 7,6 C 90 % 1023,7 hPa 0,0 l/m 1,6 km/h (1 Bft) W-NW 292 0 min 0,000 mm 44 W/m 6,1 C 7,6 C 6,4 km/h (2 Bft) 100 %
23.10.2014 09:20 7,6 C 7,6 C 7,6 C 90 % 1023,8 hPa 0,0 l/m 1,6 km/h (1 Bft) W-NW 292 0 min 0,000 mm 49 W/m 6,1 C 7,6 C 6,4 km/h (2 Bft) 99 %
23.10.2014 09:30 7,7 C 7,6 C 7,7 C 90 % 1024,0 hPa 0,0 l/m 0,0 km/h (0 Bft) W-NW 292 0 min 0,000 mm 54 W/m 6,2 C 7,7 C 8,0 km/h (2 Bft) 100 %
23.10.2014 09:40 7,7 C 7,7 C 7,8 C 89 % 1024,1 hPa 0,0 l/m 1,6 km/h (1 Bft) NW 315 0 min 0,000 mm 62 W/m 6,0 C 7,7 C 6,4 km/h (2 Bft) 100 %
23.10.2014 09:50 7,8 C 7,7 C 7,9 C 90 % 1024,1 hPa 0,0 l/m 0,0 km/h (0 Bft) NW 315 0 min 0,000 mm 62 W/m 6,3 C 7,8 C 4,8 km/h (1 Bft) 90 %
23.10.2014 10:00 8,0 C 7,8 C 8,0 C 89 % 1024,3 hPa 0,0 l/m 3,2 km/h (1 Bft) W-NW 292 0 min 0,025 mm 69 W/m 6,3 C 8,0 C 9,7 km/h (2 Bft) 100 %
23.10.2014 10:10 8,1 C 7,9 C 8,1 C 89 % 1024,4 hPa 0,0 l/m 0,0 km/h (0 Bft) W-NW 292 0 min 0,000 mm 67 W/m 6,4 C 8,1 C 4,8 km/h (1 Bft) 100 %
23.10.2014 10:20 8,1 C 8,0 C 8,1 C 89 % 1024,4 hPa 0,0 l/m 1,6 km/h (1 Bft) W-NW 292 0 min 0,000 mm 70 W/m 6,4 C 8,1 C 8,0 km/h (2 Bft) 100 %
23.10.2014 10:30 8,2 C 8,1 C 8,2 C 89 % 1024,3 hPa 0,0 l/m 1,6 km/h (1 Bft) W-NW 292 0 min 0,000 mm 102 W/m 6,5 C 8,2 C 6,4 km/h (2 Bft) 100 %
23.10.2014 10:40 8,4 C 8,2 C 8,4 C 89 % 1024,4 hPa 0,0 l/m 0,0 km/h (0 Bft) W-SW 247 0 min 0,000 mm 149 W/m 6,7 C 8,4 C 4,8 km/h (1 Bft) 100 %
23.10.2014 10:50 8,6 C 8,4 C 8,6 C 88 % 1024,5 hPa 0,0 l/m 4,8 km/h (1 Bft) W 270 10 min 0,000 mm 186 W/m 6,7 C 8,6 C 14,5 km/h (3 Bft) 100 %
23.10.2014 11:00 8,8 C 8,6 C 8,8 C 87 % 1024,4 hPa 0,0 l/m 6,4 km/h (2 Bft) W-NW 292 10 min 0,051 mm 214 W/m 6,8 C 8,8 C 16,1 km/h (3 Bft) 100 %
23.10.2014 11:10 8,9 C 8,8 C 8,9 C 87 % 1024,6 hPa 0,0 l/m 6,4 km/h (2 Bft) W-NW 292 10 min 0,000 mm 269 W/m 6,9 C 8,9 C 17,7 km/h (3 Bft) 100 %
23.10.2014 11:20 9,3 C 9,0 C 9,3 C 86 % 1024,6 hPa 0,0 l/m 8,0 km/h (2 Bft) NW 315 10 min 0,000 mm 418 W/m 7,1 C 8,1 C 19,3 km/h (3 Bft) 100 %
23.10.2014 11:30 10,0 C 9,3 C 10,0 C 85 % 1024,5 hPa 0,0 l/m 6,4 km/h (2 Bft) NW 315 10 min 0,000 mm 432 W/m 7,6 C 10,0 C 16,1 km/h (3 Bft) 100 %
23.10.2014 11:40 10,7 C 10,1 C 10,7 C 80 % 1024,4 hPa 0,0 l/m 11,3 km/h (2 Bft) NW 315 10 min 0,000 mm 464 W/m 7,4 C 7,7 C 24,1 km/h (4 Bft) 100 %
23.10.2014 11:50 11,3 C 10,7 C 11,3 C 76 % 1024,4 hPa 0,0 l/m 8,0 km/h (2 Bft) NW 315 10 min 0,000 mm 506 W/m 7,2 C 10,2 C 19,3 km/h (3 Bft) 100 %
23.10.2014 12:00 11,6 C 11,3 C 11,6 C 72 % 1024,4 hPa 0,0 l/m 9,7 km/h (2 Bft) NW 315 10 min 0,178 mm 476 W/m 6,7 C 9,5 C 24,1 km/h (4 Bft) 100 %
23.10.2014 12:10 11,7 C 11,5 C 11,7 C 75 % 1024,5 hPa 0,0 l/m 8,0 km/h (2 Bft) W-NW 292 10 min 0,000 mm 608 W/m 7,4 C 10,6 C 24,1 km/h (4 Bft) 100 %
23.10.2014 12:20 11,7 C 11,7 C 11,9 C 72 % 1024,5 hPa 0,0 l/m 6,4 km/h (2 Bft) W-NW 292 10 min 0,000 mm 315 W/m 6,8 C 11,7 C 17,7 km/h (3 Bft) 100 %
23.10.2014 12:30 11,2 C 11,2 C 11,7 C 73 % 1024,5 hPa 0,0 l/m 6,4 km/h (2 Bft) W-NW 292 0 min 0,000 mm 128 W/m 6,5 C 11,2 C 16,1 km/h (3 Bft) 100 %
23.10.2014 12:40 10,9 C 10,9 C 11,2 C 75 % 1024,5 hPa 0,0 l/m 3,2 km/h (1 Bft) W-NW 292 10 min 0,000 mm 246 W/m 6,6 C 10,9 C 11,3 km/h (2 Bft) 100 %
23.10.2014 12:50 10,8 C 10,8 C 10,9 C 74 % 1024,5 hPa 0,0 l/m 3,2 km/h (1 Bft) W 270 0 min 0,000 mm 111 W/m 6,4 C 10,8 C 11,3 km/h (2 Bft) 100 %
23.10.2014 13:00 10,7 C 10,7 C 10,8 C 78 % 1024,5 hPa 0,0 l/m 6,4 km/h (2 Bft) W-SW 247 0 min 0,102 mm 151 W/m 7,0 C 10,7 C 14,5 km/h (3 Bft) 100 %
23.10.2014 13:10 10,5 C 10,5 C 10,7 C 78 % 1024,5 hPa 0,0 l/m 6,4 km/h (2 Bft) W-SW 247 0 min 0,000 mm 109 W/m 6,8 C 10,5 C 17,7 km/h (3 Bft) 100 %
23.10.2014 13:20 10,4 C 10,4 C 10,5 C 79 % 1024,4 hPa 0,0 l/m 3,2 km/h (1 Bft) W-SW 247 0 min 0,000 mm 97 W/m 6,9 C 10,4 C 9,7 km/h (2 Bft) 100 %
23.10.2014 13:30 10,4 C 10,4 C 10,4 C 79 % 1024,3 hPa 0,0 l/m 4,8 km/h (1 Bft) W 270 0 min 0,000 mm 144 W/m 6,9 C 10,4 C 9,7 km/h (2 Bft) 100 %
23.10.2014 13:40 10,5 C 10,4 C 10,5 C 80 % 1024,2 hPa 0,0 l/m 6,4 km/h (2 Bft) W 270 10 min 0,000 mm 172 W/m 7,2 C 10,5 C 11,3 km/h (2 Bft) 100 %
23.10.2014 13:50 10,7 C 10,5 C 10,7 C 79 % 1024,2 hPa 0,0 l/m 8,0 km/h (2 Bft) W-SW 247 10 min 0,000 mm 271 W/m 7,2 C 9,6 C 17,7 km/h (3 Bft) 100 %
23.10.2014 14:00 11,2 C 10,7 C 11,2 C 79 % 1024,2 hPa 0,0 l/m 6,4 km/h (2 Bft) W-SW 247 10 min 0,076 mm 276 W/m 7,7 C 11,2 C 16,1 km/h (3 Bft) 100 %
23.10.2014 14:10 11,6 C 11,2 C 11,6 C 77 % 1024,1 hPa 0,0 l/m 9,7 km/h (2 Bft) W 270 10 min 0,000 mm 515 W/m 7,7 C 9,5 C 17,7 km/h (3 Bft) 100 %
23.10.2014 14:20 12,0 C 11,7 C 12,0 C 76 % 1024,0 hPa 0,0 l/m 8,0 km/h (2 Bft) W 270 10 min 0,000 mm 497 W/m 7,9 C 11,0 C 16,1 km/h (3 Bft) 100 %
23.10.2014 14:30 12,4 C 12,0 C 12,4 C 74 % 1023,9 hPa 0,0 l/m 6,4 km/h (2 Bft) W-NW 292 10 min 0,000 mm 545 W/m 7,9 C 12,4 C 16,1 km/h (3 Bft) 100 %
23.10.2014 14:40 12,2 C 12,2 C 12,5 C 73 % 1023,9 hPa 0,0 l/m 8,0 km/h (2 Bft) W-NW 292 10 min 0,000 mm 193 W/m 7,5 C 11,2 C 19,3 km/h (3 Bft) 100 %
23.10.2014 14:50 11,8 C 11,8 C 12,2 C 75 % 1023,9 hPa 0,0 l/m 8,0 km/h (2 Bft) W-NW 292 10 min 0,000 mm 192 W/m 7,5 C 10,7 C 17,7 km/h (3 Bft) 100 %
23.10.2014 15:00 11,5 C 11,5 C 11,8 C 77 % 1023,8 hPa 0,0 l/m 6,4 km/h (2 Bft) W-NW 292 10 min 0,152 mm 158 W/m 7,6 C 11,5 C 14,5 km/h (3 Bft) 100 %
23.10.2014 15:10 11,4 C 11,4 C 11,5 C 78 % 1023,8 hPa 0,0 l/m 4,8 km/h (1 Bft) W-SW 247 10 min 0,000 mm 195 W/m 7,7 C 11,4 C 16,1 km/h (3 Bft) 100 %
23.10.2014 15:20 11,4 C 11,4 C 11,5 C 79 % 1023,7 hPa 0,0 l/m 6,4 km/h (2 Bft) W-NW 292 10 min 0,000 mm 192 W/m 7,9 C 11,4 C 16,1 km/h (3 Bft) 100 %
23.10.2014 15:30 11,8 C 11,4 C 11,8 C 78 % 1023,7 hPa 0,0 l/m 6,4 km/h (2 Bft) NW 315 10 min 0,000 mm 418 W/m 8,1 C 11,8 C 16,1 km/h (3 Bft) 100 %
23.10.2014 15:40 12,2 C 11,8 C 12,2 C 76 % 1023,6 hPa 0,0 l/m 9,7 km/h (2 Bft) W-NW 292 10 min 0,000 mm 323 W/m 8,1 C 10,2 C 19,3 km/h (3 Bft) 100 %
23.10.2014 15:50 12,3 C 12,2 C 12,3 C 76 % 1023,6 hPa 0,0 l/m 9,7 km/h (2 Bft) W-NW 292 0 min 0,000 mm 111 W/m 8,2 C 10,3 C 19,3 km/h (3 Bft) 100 %
23.10.2014 16:00 12,3 C 12,2 C 12,3 C 76 % 1023,5 hPa 0,0 l/m 8,0 km/h (2 Bft) W-NW 292 10 min 0,102 mm 181 W/m 8,2 C 11,3 C 19,3 km/h (3 Bft) 100 %
23.10.2014 16:10 12,3 C 12,2 C 12,3 C 76 % 1023,5 hPa 0,0 l/m 7,8 km/h (2 Bft) NW 306 0 min 0,000 mm 70 W/m 8,2 C 11,4 C 11,3 km/h (2 Bft) 75 %
23.10.2014 16:20 11,8 C 11,8 C 12,3 C 75 % 1023,6 hPa 0,0 l/m 9,2 km/h (2 Bft) W-NW 290 0 min 0,000 mm 54 W/m 7,5 C 10,0 C 19,3 km/h (3 Bft) 100 %
23.10.2014 16:30 11,3 C 11,3 C 11,8 C 77 % 1023,5 hPa 0,0 l/m 7,8 km/h (2 Bft) W-NW 295 0 min 0,000 mm 53 W/m 7,4 C 10,3 C 17,7 km/h (3 Bft) 100 %
23.10.2014 16:40 11,2 C 11,2 C 11,3 C 79 % 1023,4 hPa 0,0 l/m 7,3 km/h (2 Bft) W 279 0 min 0,000 mm 51 W/m 7,7 C 10,6 C 17,7 km/h (3 Bft) 99 %
23.10.2014 16:50 11,2 C 11,2 C 11,2 C 79 % 1023,5 hPa 0,0 l/m 6,4 km/h (2 Bft) W-NW 293 0 min 0,000 mm 44 W/m 7,7 C 11,2 C 16,1 km/h (3 Bft) 100 %
23.10.2014 17:00 11,1 C 11,1 C 11,2 C 80 % 1023,4 hPa 0,0 l/m 5,8 km/h (2 Bft) W-NW 302 0 min 0,028 mm 40 W/m 7,8 C 11,1 C 16,1 km/h (3 Bft) 100 %
23.10.2014 17:10 11,1 C 11,1 C 11,1 C 81 % 1023,5 hPa 0,0 l/m 3,9 km/h (1 Bft) W 268 0 min 0,000 mm 39 W/m 8,0 C 11,1 C 11,3 km/h (2 Bft) 100 %
23.10.2014 17:20 10,9 C 10,9 C 11,1 C 81 % 1023,5 hPa 0,0 l/m 2,5 km/h (1 Bft) W-NW 302 0 min 0,000 mm 65 W/m 7,8 C 10,9 C 9,7 km/h (2 Bft) 100 %
23.10.2014 17:30 10,9 C 10,9 C 10,9 C 81 % 1023,4 hPa 0,0 l/m 3,6 km/h (1 Bft) W-NW 297 0 min 0,000 mm 39 W/m 7,8 C 10,9 C 8,0 km/h (2 Bft) 100 %
23.10.2014 17:40 10,8 C 10,8 C 10,9 C 81 % 1023,6 hPa 0,0 l/m 0,8 km/h (0 Bft) W-NW 288 0 min 0,000 mm 42 W/m 7,7 C 10,8 C 6,4 km/h (2 Bft) 98 %
23.10.2014 17:50 10,7 C 10,7 C 10,8 C 83 % 1023,6 hPa 0,0 l/m 0,0 km/h (0 Bft) W-NW 288 0 min 0,000 mm 23 W/m 7,9 C 10,7 C 1,6 km/h (1 Bft) 100 %
23.10.2014 18:00 10,6 C 10,6 C 10,7 C 83 % 1023,6 hPa 0,0 l/m 0,2 km/h (0 Bft) W-NW 288 0 min 0,000 mm 12 W/m 7,8 C 10,6 C 4,8 km/h (1 Bft) 100 %
23.10.2014 18:10 10,4 C 10,4 C 10,6 C 83 % 1023,7 hPa 0,0 l/m 0,1 km/h (0 Bft) W-NW 288 0 min 0,025 mm 5 W/m 7,6 C 10,4 C 3,2 km/h (1 Bft) 100 %
23.10.2014 18:20 10,2 C 10,2 C 10,4 C 85 % 1023,7 hPa 0,0 l/m 0,0 km/h (0 Bft) W-NW 288 0 min 0,000 mm 0 W/m 7,8 C 10,2 C 1,6 km/h (1 Bft) 100 %
23.10.2014 18:30 10,0 C 10,0 C 10,2 C 85 % 1023,8 hPa 0,0 l/m 0,0 km/h (0 Bft) W-NW 288 0 min 0,000 mm 0 W/m 7,6 C 10,0 C 0,0 km/h (0 Bft) 99 %
23.10.2014 18:40 9,9 C 9,9 C 10,0 C 86 % 1023,9 hPa 0,0 l/m 0,0 km/h (0 Bft) W-NW 288 0 min 0,000 mm 0 W/m 7,7 C 9,9 C 0,0 km/h (0 Bft) 100 %
23.10.2014 18:50 9,8 C 9,8 C 9,9 C 87 % 1023,9 hPa 0,0 l/m 0,3 km/h (0 Bft) W-NW 288 0 min 0,000 mm 0 W/m 7,7 C 9,8 C 3,2 km/h (1 Bft) 100 %
23.10.2014 19:00 9,7 C 9,7 C 9,8 C 87 % 1024,0 hPa 0,0 l/m 0,3 km/h (0 Bft) W-NW 288 0 min 0,000 mm 0 W/m 7,6 C 9,7 C 3,2 km/h (1 Bft) 100 %
23.10.2014 19:10 9,6 C 9,6 C 9,7 C 87 % 1024,0 hPa 0,0 l/m 0,0 km/h (0 Bft) W-NW 288 0 min 0,000 mm 0 W/m 7,5 C 9,6 C 1,6 km/h (1 Bft) 100 %
23.10.2014 19:20 9,5 C 9,5 C 9,6 C 88 % 1024,1 hPa 0,0 l/m 0,1 km/h (0 Bft) W-NW 288 0 min 0,000 mm 0 W/m 7,6 C 9,5 C 1,6 km/h (1 Bft) 100 %
23.10.2014 19:30 9,4 C 9,4 C 9,5 C 88 % 1024,1 hPa 0,0 l/m 0,1 km/h (0 Bft) W-NW 288 0 min 0,000 mm 0 W/m 7,5 C 9,4 C 3,2 km/h (1 Bft) 99 %
23.10.2014 19:40 9,4 C 9,4 C 9,4 C 88 % 1024,1 hPa 0,0 l/m 0,0 km/h (0 Bft) W-NW 288 0 min 0,000 mm 0 W/m 7,5 C 9,4 C 1,6 km/h (1 Bft) 100 %
23.10.2014 19:50 9,3 C 9,3 C 9,4 C 88 % 1024,1 hPa 0,0 l/m 0,1 km/h (0 Bft) W-NW 288 0 min 0,000 mm 0 W/m 7,4 C 9,3 C 1,6 km/h (1 Bft) 100 %
23.10.2014 20:00 9,3 C 9,3 C 9,4 C 88 % 1024,2 hPa 0,0 l/m 0,0 km/h (0 Bft) W-NW 288 0 min 0,000 mm 0 W/m 7,4 C 9,3 C 1,6 km/h (1 Bft) 100 %
23.10.2014 20:10 9,3 C 9,3 C 9,3 C 88 % 1024,3 hPa 0,0 l/m 0,0 km/h (0 Bft) W-NW 288 0 min 0,000 mm 0 W/m 7,4 C 9,3 C 1,6 km/h (1 Bft) 91 %
23.10.2014 20:20 9,3 C 9,3 C 9,3 C 88 % 1024,1 hPa 0,0 l/m 0,1 km/h (0 Bft) W-NW 288 0 min 0,000 mm 0 W/m 7,4 C 9,3 C 3,2 km/h (1 Bft) 100 %
23.10.2014 20:30 9,2 C 9,2 C 9,3 C 89 % 1024,2 hPa 0,0 l/m 0,1 km/h (0 Bft) W-NW 288 0 min 0,000 mm 0 W/m 7,5 C 9,2 C 1,6 km/h (1 Bft) 100 %
23.10.2014 20:40 9,0 C 9,0 C 9,2 C 89 % 1024,1 hPa 0,0 l/m 0,0 km/h (0 Bft) W-NW 288 0 min 0,000 mm 0 W/m 7,3 C 9,0 C 0,0 km/h (0 Bft) 100 %
23.10.2014 20:50 8,9 C 8,9 C 9,0 C 89 % 1024,1 hPa 0,0 l/m 0,0 km/h (0 Bft) W-NW 288 0 min 0,000 mm 0 W/m 7,2 C 8,9 C 0,0 km/h (0 Bft) 100 %
23.10.2014 21:00 8,8 C 8,8 C 8,9 C 89 % 1024,0 hPa 0,0 l/m 0,0 km/h (0 Bft) W-NW 288 0 min 0,000 mm 0 W/m 7,1 C 8,8 C 1,6 km/h (1 Bft) 100 %
23.10.2014 21:10 8,7 C 8,7 C 8,8 C 90 % 1024,0 hPa 0,0 l/m 0,0 km/h (0 Bft) N 0 0 min 0,000 mm 0 W/m 7,2 C 8,7 C 0,0 km/h (0 Bft) 100 %
23.10.2014 21:20 8,7 C 8,7 C 8,7 C 90 % 1024,1 hPa 0,0 l/m 0,0 km/h (0 Bft) N 0 0 min 0,000 mm 0 W/m 7,2 C 8,7 C 0,0 km/h (0 Bft) 100 %
23.10.2014 21:30 8,6 C 8,6 C 8,7 C 90 % 1024,1 hPa 0,0 l/m 0,0 km/h (0 Bft) W-NW 292 0 min 0,000 mm 0 W/m 7,1 C 8,6 C 1,6 km/h (1 Bft) 100 %
23.10.2014 21:40 8,4 C 8,4 C 8,6 C 90 % 1024,1 hPa 0,0 l/m 0,0 km/h (0 Bft) W-NW 292 0 min 0,000 mm 0 W/m 6,9 C 8,4 C 1,6 km/h (1 Bft) 100 %
23.10.2014 21:50 8,1 C 8,1 C 8,4 C 90 % 1024,0 hPa 0,0 l/m 0,0 km/h (0 Bft) W-NW 292 0 min 0,000 mm 0 W/m 6,6 C 8,1 C 1,6 km/h (1 Bft) 100 %
23.10.2014 22:00 7,8 C 7,8 C 8,1 C 90 % 1024,1 hPa 0,0 l/m 0,0 km/h (0 Bft) N 0 0 min 0,000 mm 0 W/m 6,3 C 7,8 C 0,0 km/h (0 Bft) 100 %
23.10.2014 22:10 7,6 C 7,6 C 7,8 C 91 % 1024,1 hPa 0,0 l/m 0,0 km/h (0 Bft) N 0 0 min 0,000 mm 0 W/m 6,2 C 7,6 C 0,0 km/h (0 Bft) 91 %
23.10.2014 22:20 7,4 C 7,4 C 7,6 C 91 % 1024,1 hPa 0,0 l/m 0,0 km/h (0 Bft) N 0 0 min 0,000 mm 0 W/m 6,0 C 7,4 C 0,0 km/h (0 Bft) 100 %
23.10.2014 22:30 7,3 C 7,3 C 7,4 C 91 % 1024,1 hPa 0,0 l/m 0,0 km/h (0 Bft) N 0 0 min 0,000 mm 0 W/m 5,9 C 7,3 C 0,0 km/h (0 Bft) 100 %
23.10.2014 22:40 7,2 C 7,2 C 7,3 C 91 % 1024,2 hPa 0,0 l/m 0,0 km/h (0 Bft) N 0 0 min 0,000 mm 0 W/m 5,8 C 7,2 C 0,0 km/h (0 Bft) 100 %
23.10.2014 22:50 7,0 C 7,0 C 7,2 C 91 % 1024,3 hPa 0,0 l/m 0,0 km/h (0 Bft) N 0 0 min 0,000 mm 0 W/m 5,6 C 7,0 C 0,0 km/h (0 Bft) 100 %
23.10.2014 23:00 6,8 C 6,8 C 7,0 C 91 % 1024,2 hPa 0,0 l/m 0,0 km/h (0 Bft) N 0 0 min 0,000 mm 0 W/m 5,4 C 6,8 C 0,0 km/h (0 Bft) 100 %
23.10.2014 23:10 6,6 C 6,6 C 6,8 C 91 % 1024,2 hPa 0,0 l/m 0,0 km/h (0 Bft) N 0 0 min 0,000 mm 0 W/m 5,2 C 6,6 C 0,0 km/h (0 Bft) 100 %
23.10.2014 23:20 6,3 C 6,3 C 6,6 C 91 % 1024,0 hPa 0,0 l/m 0,0 km/h (0 Bft) N 0 0 min 0,000 mm 0 W/m 4,9 C 6,3 C 0,0 km/h (0 Bft) 100 %
23.10.2014 23:30 6,2 C 6,2 C 6,3 C 91 % 1024,0 hPa 0,0 l/m 0,0 km/h (0 Bft) N 0 0 min 0,000 mm 0 W/m 4,8 C 6,2 C 0,0 km/h (0 Bft) 100 %
23.10.2014 23:40 6,1 C 6,1 C 6,2 C 91 % 1023,9 hPa 0,0 l/m 0,0 km/h (0 Bft) N 0 0 min 0,000 mm 0 W/m 4,7 C 6,1 C 0,0 km/h (0 Bft) 100 %
23.10.2014 23:50 5,9 C 5,9 C 6,1 C 91 % 1023,9 hPa 0,0 l/m 0,0 km/h (0 Bft) N 0 0 min 0,000 mm 0 W/m 4,5 C 5,9 C 0,0 km/h (0 Bft) 100 %
_ Min-Zeit 23:50 23:50 23:50 12:00 00:00 - 08:30 - - - - - 23:50 02:20 18:30 16:10
Minimum _ 5,9 C 5,9 C 6,1 C 72 % 1019,6 hPa - 0,0 km/h (0 Bft) - - - - - 4,5 C 0,6 C 0,0 km/h (0 Bft) 75 %
_ Max-Zeit 14:40 14:40 14:40 22:10 11:10 00:00 02:20 - - 10:50 12:00 12:10 15:50 14:30 02:20 00:00
Maximum _ 12,5 C 12,2 C 12,5 C 91 % 1024,6 hPa 0,0 l/m 19,3 km/h
W-NW (3 Bft)
- - 10 min 0,178 mm 608 W/m 8,2 C 12,4 C 38,6 km/h
NW (5 Bft)
100 %
Durchschnitt _ 8,9 C 8,8 C 9,0 C 85 % 1023,0 hPa #0,0 l/m 6,0 km/h (2 Bft) W-NW - #4:10 h #0,889 mm 175 W/m 6,5 C 7,5 C 13,9 km/h (3 Bft) 99 %
PRIVATE WETTERSTATION BILLIGHEIM-ALLFELD - www.neckar-odenwald-wetter.de - Holger Sonntag